#timestamp,LO_Frequency,Hit 
1499392815.6,286046979.4,N
1499392835.4,286046981.7,N
1499392855.2,286046980.6,N
1499392875.1,286046980.7,N
1499392876.0,286046980.7,N
1499392895.8,286046983.1,N
1499392915.6,286046983.1,N
1499392935.4,286046980.5,N
1499392955.3,286046982.4,N
1499392975.1,286046980.5,N
1499392995.8,286046983.6,N
1499393015.7,286046981.7,N
1499393035.5,286046982.0,N
1499393055.3,286046983.2,N
1499393075.2,286046982.7,N
1499393095.9,286046982.8,N
1499393115.7,286046982.1,N
1499393135.6,286046984.7,N
1499393155.4,286046983.7,N
1499393175.2,286046983.8,N
1499393195.1,286046986.6,N
1499393196.0,286046986.6,N
1499393215.8,286046986.7,N
1499393235.6,286046986.4,N
1499393255.5,286046986.5,N
1499393275.3,286046986.7,N
1499393295.1,286046983.8,N
1499393315.8,286046983.7,N
1499393335.7,286046983.9,N
1499393355.5,286046984.2,N
1499393375.3,286046986.6,N
1499393395.2,286046986.3,N
1499393415.0,286046986.1,N
1499393415.9,286046986.1,N
1499393435.7,286046984.1,N
1499393455.6,286046984.5,N
1499393475.4,286046984.2,N
1499393495.2,286046984.4,N
1499393515.1,286046984.0,N
1499393516.0,286046984.0,N
1499393535.8,286046986.4,N
1499393555.6,286046984.1,N
1499393575.5,286046984.0,N
1499393595.3,286046985.4,N
1499393615.1,286046987.4,N
1499393635.9,286046988.8,N
1499393655.7,286046990.0,N
1499393675.5,286046987.8,N
1499393695.3,286046985.5,N
1499393715.2,286046985.9,N
1499393735.0,286046986.3,N
1499393735.9,286046986.3,N
1499393755.7,286046985.6,N
1499393775.6,286046985.6,N
1499393795.4,286046987.7,N
1499393815.2,286046988.4,N
1499393835.1,286046985.7,N
1499393836.0,286046985.7,N
1499393855.8,286046985.5,N
1499393875.6,286046987.2,N
1499393895.5,286046988.3,N
1499393915.3,286046988.3,N
1499393935.1,286046987.1,N
1499393955.9,286046987.3,N
1499393975.7,286046985.7,N
1499393995.5,286046988.2,N
1499394015.4,286046987.8,N
1499394035.2,286046988.2,N
1499394055.0,286046987.2,N
1499394055.9,286046987.2,N
1499394075.8,286046987.8,N
1499394095.6,286046989.4,N
1499394115.4,286046988.9,N
1499394135.2,286046988.7,N
1499394155.1,286046989.1,N
1499394156.0,286046989.1,N
1499394175.8,286046991.6,N
1499394195.6,286046991.1,N
1499394215.5,286046990.6,N
1499394235.3,286046991.9,N
1499394255.1,286046994.8,N
1499394275.9,286046992.1,N
1499394295.7,286046992.3,N
1499394315.5,286046994.7,N
1499394335.4,286046993.8,N
1499394355.2,286046998.0,N
1499394375.0,286046996.2,N
1499394375.9,286046996.2,N
1499394395.8,286046995.2,N
1499394415.6,286046995.8,N
1499394435.4,286046997.9,N
1499394455.3,286046996.1,N
1499394475.1,286046996.2,N
1499394476.0,286046996.2,N
1499394495.8,286046996.2,N
1499394515.7,286046993.3,N
1499394535.5,286046993.4,N
1499394555.3,286046996.2,N
1499394575.1,286046995.5,N
1499394595.9,286046993.7,N
1499394615.7,286046995.4,N
1499394635.5,286046997.1,N
1499394655.4,286046995.7,N
1499394675.2,286046994.6,N
1499394695.0,286046994.3,N
1499394695.9,286046994.3,N
1499394715.8,286046994.6,N
1499394735.6,286046992.3,N
1499394755.4,286046994.4,N
1499394775.3,286046992.0,N
1499394795.1,286046994.3,N
1499394815.8,286046993.7,N
1499394835.7,286046993.4,N
1499394855.5,286046994.6,N
1499394875.3,286046993.9,N
1499394895.2,286046993.9,N
1499394915.9,286046995.2,N
1499394935.7,286046995.9,N
1499394955.6,286046993.9,N
1499394975.4,286046994.2,N
1499394995.2,286046996.2,N
1499395015.1,286046995.9,N
1499395016.0,286046995.9,N
1499395035.8,286046993.5,N
1499395055.6,286046995.9,N
1499395075.4,286046994.0,N
1499395095.3,286046995.4,N
1499395115.1,286046997.9,N
1499395135.8,286047001.2,N
1499395155.7,286047001.1,N
1499395175.5,286047000.7,N
1499395195.3,286047001.1,N
1499395215.2,286047001.2,N
1499395235.9,286047000.3,N
1499395255.7,286047001.1,N
1499395275.6,286047001.1,N
1499395295.4,286046998.2,N
1499395315.2,286046998.6,N
1499395335.1,286047002.8,N
1499395336.0,286047002.8,N
1499395355.8,286047000.2,N
1499395375.6,286047002.8,N
1499395395.5,286046999.8,N
1499395415.3,286046999.8,N
1499395435.1,286046999.7,N
1499395455.8,286047000.3,N
1499395475.7,286047001.2,N
1499395495.5,286047000.3,N
1499395515.3,286047000.5,N
1499395535.2,286047000.9,N
1499395555.9,286047000.4,N
1499395575.7,286046999.8,N
1499395595.6,286046999.8,N
1499395615.4,286047001.6,N
1499395635.2,286047004.4,N
1499395655.1,286047001.4,N
1499395656.0,286047001.4,N
1499395675.8,286047002.1,N
1499395695.6,286047000.0,N
1499395715.5,286046999.8,N
1499395735.3,286047001.3,N
1499395755.1,286047004.2,N
1499395775.8,286047004.4,N
1499395795.7,286047004.2,N
1499395815.5,286047003.0,N
1499395835.3,286047005.5,N
1499395855.2,286047005.7,N
1499395875.9,286047004.0,N
1499395895.7,286047003.1,N
1499395915.6,286047003.7,N
1499395935.4,286047001.6,N
1499395955.2,286047003.9,N
1499395975.1,286047004.1,N
1499395976.0,286047004.1,N
1499395995.8,286047001.5,N
1499396015.6,286047003.4,N
1499396035.5,286047005.7,N
1499396055.3,286047003.4,N
1499396075.1,286047003.2,N
1499396095.8,286047005.7,N
1499396115.7,286047007.3,N
1499396135.5,286047007.1,N
1499396155.3,286047006.2,N
1499396175.2,286047009.1,N
1499396195.0,286047008.4,N
1499396195.9,286047008.4,N
1499396215.7,286047011.7,N
1499396235.6,286047013.7,N
1499396255.4,286047011.4,N
1499396275.2,286047013.8,N
1499396295.1,286047011.3,N
1499396296.0,286047011.3,N
1499396315.8,286047015.5,N
1499396335.6,286047017.2,N
1499396355.5,286047015.7,N
1499396375.3,286047018.6,N
1499396395.1,286047019.9,N
